When you browse on this site, cookies collect data to enhance your experience and personalize the content and advertising you see.
Visit our Privacy Policy to learn more. By continuing to use the site, you agree to this use of cookies and data.

Stündliche Wetter Tytarivka

Heute, 14 Juli, Dienstag

Zeit Temperatur Niederschläge Wind Luftdruck Luftfeuchtigkeit
00:00 +21°C° 1.6 mm 2 m/S 745 mmHg 94%
01:00 +20°C° 1.3 mm 3 m/S 745 mmHg 94%
02:00 +20°C° 1.3 mm 3 m/S 745 mmHg 94%
03:00 +20°C° 0 mm 4 m/S 745 mmHg 94%
04:00 +20°C° 2.5 mm 4 m/S 745 mmHg 95%
05:00 +20°C° 2.5 mm 4 m/S 745 mmHg 95%
06:00 +20°C° 2.5 mm 3 m/S 744 mmHg 95%
07:00 +20°C° 0.5 mm 4 m/S 744 mmHg 94%
08:00 +20°C° 0.5 mm 4 m/S 745 mmHg 93%
09:00 +20°C° 0 mm 4 m/S 744 mmHg 93%
10:00 +21°C° 0.2 mm 4 m/S 745 mmHg 88%
11:00 +22°C° 0.2 mm 4 m/S 745 mmHg 83%
12:00 +23°C° 0.2 mm 5 m/S 745 mmHg 79%
13:00 +23°C° 0.3 mm 5 m/S 745 mmHg 74%
14:00 +25°C° 0.3 mm 5 m/S 745 mmHg 70%
15:00 +26°C° 0 mm 6 m/S 746 mmHg 64%
16:00 +24°C° 0.3 mm 6 m/S 746 mmHg 66%
17:00 +23°C° 0.3 mm 6 m/S 746 mmHg 69%
18:00 +23°C° 0.3 mm 6 m/S 746 mmHg 71%
19:00 +21°C° 0 mm 6 m/S 747 mmHg 74%
20:00 +20°C° 0 mm 6 m/S 747 mmHg 77%
21:00 +17°C° 0 mm 5 m/S 747 mmHg 81%
22:00 +16°C° 0 mm 6 m/S 748 mmHg 81%
23:00 +16°C° 0 mm 6 m/S 748 mmHg 82%

Morgen, 15 Juli, Mittwoch

Zeit Temperatur Niederschläge Wind Luftdruck Luftfeuchtigkeit
00:00 +15°C° 0 mm 6 m/S 748 mmHg 82%
01:00 +15°C° 0 mm 6 m/S 748 mmHg 82%
02:00 +15°C° 0 mm 6 m/S 749 mmHg 81%
03:00 +15°C° 0 mm 7 m/S 749 mmHg 81%
04:00 +16°C° 0 mm 7 m/S 749 mmHg 81%
05:00 +16°C° 0 mm 6 m/S 750 mmHg 81%
06:00 +16°C° 0 mm 6 m/S 750 mmHg 81%
07:00 +16°C° 0 mm 6 m/S 751 mmHg 80%
08:00 +17°C° 0 mm 6 m/S 751 mmHg 78%
09:00 +19°C° 0 mm 6 m/S 751 mmHg 76%
10:00 +20°C° 0.1 mm 6 m/S 751 mmHg 70%
11:00 +21°C° 0.1 mm 6 m/S 752 mmHg 65%
12:00 +23°C° 0.1 mm 6 m/S 752 mmHg 59%
13:00 +23°C° 0.1 mm 6 m/S 752 mmHg 55%
14:00 +24°C° 0.1 mm 6 m/S 752 mmHg 52%
15:00 +26°C° 0.1 mm 7 m/S 752 mmHg 48%
16:00 +24°C° 0 mm 6 m/S 752 mmHg 50%
17:00 +24°C° 0 mm 6 m/S 752 mmHg 53%
18:00 +23°C° 0 mm 5 m/S 752 mmHg 55%
19:00 +22°C° 0 mm 4 m/S 753 mmHg 60%
20:00 +20°C° 0 mm 3 m/S 753 mmHg 65%
21:00 +19°C° 0 mm 2 m/S 753 mmHg 70%
22:00 +18°C° 0 mm 2 m/S 753 mmHg 71%
23:00 +18°C° 0 mm 2 m/S 753 mmHg 72%

übermorgen, 16 Juli, Donnerstag

Zeit Temperatur Niederschläge Wind Luftdruck Luftfeuchtigkeit
00:00 +17°C° 0 mm 2 m/S 753 mmHg 73%
01:00 +17°C° 0 mm 2 m/S 753 mmHg 75%
02:00 +17°C° 0 mm 2 m/S 753 mmHg 78%
03:00 +16°C° 0 mm 2 m/S 753 mmHg 80%
04:00 +16°C° 0 mm 2 m/S 753 mmHg 80%
05:00 +17°C° 0 mm 2 m/S 753 mmHg 80%
06:00 +17°C° 0 mm 2 m/S 753 mmHg 80%
07:00 +19°C° 0 mm 2 m/S 753 mmHg 73%
08:00 +20°C° 0 mm 2 m/S 754 mmHg 67%
09:00 +23°C° 0 mm 2 m/S 754 mmHg 61%
10:00 +24°C° 0.1 mm 2 m/S 754 mmHg 57%
11:00 +25°C° 0.1 mm 3 m/S 753 mmHg 52%
12:00 +26°C° 0.1 mm 3 m/S 753 mmHg 48%
13:00 +26°C° 0 mm 3 m/S 753 mmHg 49%
14:00 +26°C° 0 mm 3 m/S 753 mmHg 50%
15:00 +26°C° 0 mm 3 m/S 753 mmHg 50%
16:00 +26°C° 0 mm 2 m/S 753 mmHg 51%
17:00 +26°C° 0 mm 2 m/S 752 mmHg 51%
18:00 +26°C° 0 mm 2 m/S 752 mmHg 52%
19:00 +24°C° 0 mm 2 m/S 752 mmHg 58%
20:00 +21°C° 0 mm 2 m/S 753 mmHg 65%
21:00 +20°C° 0 mm 1 m/S 753 mmHg 71%
22:00 +20°C° 0 mm 1 m/S 753 mmHg 74%
23:00 +19°C° 0 mm 1 m/S 753 mmHg 76%

17 Juli, Freitag

Zeit Temperatur Niederschläge Wind Luftdruck Luftfeuchtigkeit
00:00 +19°C° 0 mm 1 m/S 753 mmHg 79%
01:00 +18°C° 0 mm 1 m/S 753 mmHg 80%
02:00 +18°C° 0 mm 1 m/S 753 mmHg 80%
03:00 +18°C° 0 mm 1 m/S 753 mmHg 81%
04:00 +18°C° 0 mm 1 m/S 753 mmHg 81%
05:00 +18°C° 0 mm 1 m/S 753 mmHg 81%
06:00 +19°C° 0 mm 1 m/S 753 mmHg 80%
07:00 +20°C° 0 mm 1 m/S 753 mmHg 75%
08:00 +22°C° 0 mm 1 m/S 753 mmHg 69%
09:00 +23°C° 0 mm 1 m/S 753 mmHg 63%
10:00 +24°C° 0 mm 1 m/S 753 mmHg 57%
11:00 +25°C° 0 mm 1 m/S 753 mmHg 51%
12:00 +26°C° 0 mm 1 m/S 753 mmHg 46%
13:00 +27°C° 0 mm 2 m/S 753 mmHg 44%
14:00 +27°C° 0 mm 2 m/S 753 mmHg 42%
15:00 +28°C° 0 mm 2 m/S 753 mmHg 40%
16:00 +27°C° 0 mm 2 m/S 753 mmHg 41%
17:00 +27°C° 0 mm 3 m/S 753 mmHg 43%
18:00 +27°C° 0 mm 3 m/S 753 mmHg 44%
19:00 +25°C° 0 mm 3 m/S 753 mmHg 48%
20:00 +22°C° 0 mm 3 m/S 753 mmHg 52%
21:00 +20°C° 0 mm 3 m/S 753 mmHg 56%
22:00 +20°C° 0 mm 3 m/S 753 mmHg 60%
23:00 +19°C° 0 mm 3 m/S 754 mmHg 65%

18 Juli, Samstag

Zeit Temperatur Niederschläge Wind Luftdruck Luftfeuchtigkeit
00:00 +18°C° 0 mm 2 m/S 754 mmHg 69%
01:00 +18°C° 0 mm 2 m/S 754 mmHg 72%
02:00 +17°C° 0 mm 2 m/S 754 mmHg 74%
03:00 +17°C° 0 mm 2 m/S 754 mmHg 77%
04:00 +17°C° 0 mm 2 m/S 754 mmHg 77%
05:00 +17°C° 0 mm 2 m/S 755 mmHg 77%
06:00 +18°C° 0 mm 2 m/S 755 mmHg 78%
07:00 +20°C° 0 mm 2 m/S 755 mmHg 71%
08:00 +23°C° 0 mm 2 m/S 755 mmHg 64%
09:00 +24°C° 0 mm 2 m/S 755 mmHg 57%
10:00 +26°C° 0 mm 2 m/S 755 mmHg 52%
11:00 +27°C° 0 mm 1 m/S 755 mmHg 47%
12:00 +28°C° 0 mm 1 m/S 755 mmHg 42%
13:00 +29°C° 0 mm 1 m/S 755 mmHg 40%
14:00 +29°C° 0 mm 1 m/S 755 mmHg 37%
15:00 +30°C° 0 mm 1 m/S 755 mmHg 35%
16:00 +29°C° 0 mm 2 m/S 755 mmHg 36%
17:00 +29°C° 0 mm 2 m/S 755 mmHg 37%
18:00 +29°C° 0 mm 2 m/S 755 mmHg 38%
19:00 +27°C° 0 mm 2 m/S 755 mmHg 43%
20:00 +25°C° 0 mm 2 m/S 755 mmHg 48%
21:00 +23°C° 0 mm 2 m/S 755 mmHg 53%
22:00 +23°C° 0 mm 2 m/S 755 mmHg 56%
23:00 +21°C° 0 mm 2 m/S 755 mmHg 59%

19 Juli, Sonntag

Zeit Temperatur Niederschläge Wind Luftdruck Luftfeuchtigkeit
00:00 +20°C° 0 mm 2 m/S 755 mmHg 63%
01:00 +20°C° 0 mm 2 m/S 756 mmHg 65%
02:00 +19°C° 0 mm 2 m/S 756 mmHg 67%
03:00 +19°C° 0 mm 2 m/S 756 mmHg 70%
04:00 +19°C° 0 mm 2 m/S 756 mmHg 71%
05:00 +19°C° 0 mm 2 m/S 756 mmHg 72%
06:00 +19°C° 0 mm 2 m/S 756 mmHg 73%
07:00 +21°C° 0 mm 2 m/S 756 mmHg 67%
08:00 +24°C° 0 mm 2 m/S 756 mmHg 61%
09:00 +26°C° 0 mm 3 m/S 756 mmHg 55%
10:00 +28°C° 0 mm 3 m/S 755 mmHg 50%
11:00 +29°C° 0 mm 2 m/S 755 mmHg 45%
12:00 +30°C° 0 mm 2 m/S 755 mmHg 40%
13:00 +30°C° 0 mm 2 m/S 755 mmHg 39%
14:00 +31°C° 0 mm 2 m/S 754 mmHg 38%
15:00 +31°C° 0 mm 2 m/S 754 mmHg 36%
16:00 +31°C° 0 mm 2 m/S 753 mmHg 38%
17:00 +31°C° 0 mm 2 m/S 753 mmHg 40%
18:00 +30°C° 0 mm 2 m/S 753 mmHg 41%
19:00 +28°C° 0 mm 3 m/S 753 mmHg 45%
20:00 +27°C° 0 mm 3 m/S 753 mmHg 49%
21:00 +25°C° 0 mm 3 m/S 753 mmHg 53%
22:00 +24°C° 0 mm 3 m/S 753 mmHg 55%
23:00 +22°C° 0 mm 3 m/S 752 mmHg 57%
Mehr zeigen